• Join FlightAware (Why Join?)
  • Login
  • US Flag 
06:36PM EDT


 

Airport Tracker/Info


-or-


 

Live Flight TrackerFlight Track Log ✈ SKW5502 ✈ 15-Jul-2014 ✈ KMLI - KORD

Flight Track Log - Related Links

Times and Time Zones

All times are in EDT time to prevent confusion due to time zone crossing. See the SKW5502 flight status page for this flight to view local times or setup timezone preferences in your user account.

Time Position Orientation Groundspeed Altitude Reporting Facility
EDT Latitude Longitude Course Direction KTS MPH feet Rate Location/Type
10:20AM 41.3714 -90.5058 114° Southeast 235 270 7,000  Level Chicago Center
10:21AM 41.3736 -90.4053 88° East 255 293 9,200 1,440 Climbing Chicago Center
10:22AM 41.3811 -90.2958 85° East 291 335 10,000 1,740 Climbing Chicago Center
10:23AM 41.3914 -90.1547 84° East 312 359 12,800 2,280 Climbing Chicago Center
10:24AM 41.4333 -89.9253 90° East  Level FlightAware Approximate
10:24AM 41.3997 -90.0339 85° East 325 374 14,800  Level Chicago Center
10:25AM 41.4083 -89.9108 85° East 333 383 15,000 120 Climbing Chicago Center
10:26AM 41.4169 -89.7881 85° East 333 383 15,100 -900 Climbing Chicago Center
10:27AM 41.4233 -89.6706 86° East 324 373 13,200 -1,500 Descending Chicago Center
10:28AM 41.4306 -89.5558 85° East 316 364 12,100 -540 Descending Chicago Center
10:29AM 41.4431 -89.4200 83° East 310 357 12,100  Level Chicago Center
10:30AM 41.4553 -89.3044 82° East 310 357 12,100  Level Chicago Center
10:31AM 41.4650 -89.1869 84° East 316 364 12,100  Level Chicago Center
10:32AM 41.4772 -89.0686 82° East 319 367 12,100  Level Chicago Center
10:33AM 41.4889 -88.9528 82° East 319 367 12,100 -60 Level Chicago Center
10:34AM 41.5028 -88.8119 82° East 350 403 12,000 -60 Descending Chicago Center
10:35AM 41.5272 -88.6675 77° East 373 429 12,000  Level Chicago Center
10:36AM 41.5844 -88.5581 55° Northeast 360 414 12,000 -720 Level Chicago Center
10:37AM 41.6439 -88.4450 55° Northeast 346 398 10,600 -1,020 Descending Chicago Center
10:39AM 41.6978 -88.3431 55° Northeast 338 389 10,000 -300 Descending Chicago Center
10:40AM 41.7525 -88.2386 55° Northeast 341 392 10,000  Level Chicago Center
10:41AM 41.8028 -88.1181 61° Northeast 350 403 10,000  Level Chicago Center
10:42AM 41.8353 -87.9933 71° East 354 407 10,000  Level Chicago Center
10:43AM 41.8692 -87.8583 71° East 354 407 10,000 -300 Level Chicago Center
10:44AM 41.8825 -87.7403 81° East 311 358 9,500 -1,200 Descending Chicago Center
10:45AM 41.8833 -87.6319 89° East 291 335 7,600 -1,920 Descending Chicago Center
10:46AM 41.8833 -87.5217 90° East 278 320 5,500 -1,260 Descending Chicago Center
10:47AM 41.8833 -87.4264 90° East 255 293 5,000 -300 Descending Chicago Center
10:48AM 41.9092 -87.3778 54° Northeast 174 200 5,000  Level Chicago Center
10:49AM 41.9422 -87.4111 323° Northwest 174 200 5,000  Level Chicago Center
10:50AM 41.9589 -87.4769 289° West 174 200 5,000  Level Chicago Center
10:51AM 41.9658 -87.5422 278° West 175 201 5,000 -120 Level Chicago Center
10:52AM 41.9658 -87.6169 270° West 183 211 4,800 -600 Descending Chicago Center
10:53AM 41.9656 -87.6881 270° West 189 217 3,800 -1,020 Descending Chicago Center
10:54AM 41.9653 -87.7622 270° West 187 215 2,700 -960 Descending Chicago Center
10:55AM 41.9658 -87.8147 271° West 143 165 1,900 -780 Descending Chicago Center
10:56AM 41.9650 -87.8631 269° West 133 153 1,100 -540 Descending Chicago Center
10:57AM 41.9650 -87.9108 270° West 133 153 900 -240 Descending Chicago Center